CW5091 Weather Reports


Display with metric or nautical units.
time (UTC)temp
F
wind
direction
speed
MPH
gust
MPH
rain 1hr
in
rain 24hr
in
rain mn
in
humidity
%
barometer
mb
20171023003107 66 118 0.0 1.0 0.00 0.00 0.00 30 1029.5
20171023001537 68 118 0.0 1.0 0.00 0.00 0.00 26 1026.5
20171023000035 70 118 0.0 1.0 0.00 0.00 0.00 26 1026.5
20171022234538 71 118 0.0 1.0 0.00 0.00 0.00 23 1026.3
20171022233041 72 118 0.0 1.0 0.00 0.00 0.00 24 1026.4
20171022231531 72 128 0.0 1.0 0.00 0.00 0.00 20 1026.4
20171022230029 73 128 0.0 1.0 0.00 0.00 0.00 19 1026.5
20171022224528 73 146 0.0 2.0 0.00 0.00 0.00 19 1026.6
20171022223029 73 146 0.0 3.0 0.00 0.00 0.00 18 1026.5
20171022221526 72 146 0.0 2.0 0.00 0.00 0.00 20 1026.6
20171022220024 72 146 0.0 2.0 0.00 0.00 0.00 19 1026.5
20171022214531 71 147 0.0 2.0 0.00 0.00 0.00 21 1026.7
20171022213026 71 142 0.0 4.0 0.00 0.00 0.00 22 1026.8
20171022211520 70 142 0.0 2.0 0.00 0.00 0.00 22 1027.0
20171022210021 70 142 0.0 2.0 0.00 0.00 0.00 25 1027.3
20171022204523 69 141 0.0 2.0 0.00 0.00 0.00 24 1027.5
20171022203021 69 140 0.0 4.0 0.00 0.00 0.00 25 1027.8
20171022201513 67 163 0.0 1.0 0.00 0.00 0.00 28 1027.9
20171022200012 67 168 0.0 2.0 0.00 0.00 0.00 28 1028.1
20171022194505 65 176 0.0 3.0 0.00 0.00 0.00 28 1028.5
20171022193008 65 150 0.0 2.0 0.00 0.00 0.00 34 1028.7
20171022191503 65 153 1.0 3.0 0.00 0.00 0.00 32 1028.9
20171022190003 63 169 0.0 2.0 0.00 0.00 0.00 34 1029.2
20171022184454 62 146 0.0 3.0 0.00 0.00 0.00 40 1029.4
20171022182950 59 105 0.0 1.0 0.00 0.00 0.00 44 1029.7
20171022181447 58 124 0.0 3.0 0.00 0.00 0.00 47 1029.8
20171022175951 57 123 0.0 2.0 0.00 0.00 0.00 52 1030.3
20171022174443 55 123 0.0 1.0 0.00 0.00 0.00 55 1030.4
20171022172946 53 125 0.0 2.0 0.00 0.00 0.00 58 1030.6
20171022171429 51 105 0.0 2.0 0.00 0.00 0.00 61 1030.6
20171022165947 48 105 0.0 1.0 0.00 0.00 0.00 68 1030.6
20171022164430 46 113 0.0 2.0 0.00 0.00 0.00 73 1030.5
20171022162916 44 113 0.0 1.0 0.00 0.00 0.00 75 1030.6
20171022161412 42 122 0.0 1.0 0.00 0.00 0.00 81 1030.7
20171022155908 41 122 0.0 1.0 0.00 0.00 0.00 85 1030.7
20171022154404 38 122 0.0 2.0 0.00 0.00 0.00 91 1030.6
20171022152912 35 122 0.0 1.0 0.00 0.00 0.00 94 1030.1
20171022151359 33 122 0.0 0.0 0.00 0.00 0.00 94 1029.9
20171022145856 32 122 0.0 0.0 0.00 0.00 0.00 94 1029.9
20171022144353 31 122 0.0 0.0 0.00 0.00 0.00 93 1029.6
20171022142851 31 122 0.0 1.0 0.00 0.00 0.00 94 1029.5
20171022141353 31 122 0.0 0.0 0.00 0.00 0.00 93 1029.3
20171022135847 32 122 0.0 1.0 0.00 0.00 0.00 93 1029.2
20171022134347 32 122 0.0 1.0 0.00 0.00 0.00 93 1029.0
20171022132903 32 122 0.0 0.0 0.00 0.00 0.00 93 1028.8
20171022131342 32 122 0.0 0.0 0.00 0.00 0.00 93 1028.7
20171022125840 33 122 0.0 0.0 0.00 0.00 0.00 92 1028.6
20171022124338 33 122 0.0 2.0 0.00 0.00 0.00 92 1028.4
20171022122836 34 122 0.0 1.0 0.00 0.00 0.00 92 1028.2
20171022121341 34 122 0.0 1.0 0.00 0.00 0.00 91 1028.0
20171022115845 35 122 0.0 2.0 0.00 0.00 0.00 92 1028.1
20171022114347 35 129 0.0 0.0 0.00 0.00 0.00 91 1028.1
20171022112828 36 129 0.0 2.0 0.00 0.00 0.00 91 1028.3
20171022111327 36 101 1.0 3.0 0.00 0.00 0.00 91 1028.2
20171022105826 36 100 0.0 0.0 0.00 0.00 0.00 91 1028.1
20171022104333 36 99 0.0 2.0 0.00 0.00 0.00 92 1027.9
20171022102826 36 99 0.0 1.0 0.00 0.00 0.00 91 1028.1
20171022101321 37 99 0.0 2.0 0.00 0.00 0.00 91 1028.0
20171022095826 37 97 0.0 1.0 0.00 0.00 0.00 90 1028.2
20171022094319 37 97 0.0 2.0 0.00 0.00 0.00 91 1028.2
20171022092818 37 97 0.0 1.0 0.00 0.00 0.00 91 1028.0
20171022091317 36 97 0.0 0.0 0.00 0.00 0.00 91 1028.2
20171022085826 37 97 0.0 0.0 0.00 0.00 0.00 91 1028.0
20171022084316 37 97 0.0 0.0 0.00 0.00 0.00 91 1027.9
20171022082812 37 97 0.0 0.0 0.00 0.00 0.00 90 1027.5
20171022081307 37 97 0.0 0.0 0.00 0.00 0.00 90 1027.4
20171022075825 37 97 0.0 0.0 0.00 0.00 0.00 90 1027.1
20171022074319 38 97 0.0 0.0 0.00 0.00 0.00 90 1027.1
20171022072803 38 97 0.0 0.0 0.00 0.00 0.00 89 1027.1
20171022071300 38 97 0.0 0.0 0.00 0.00 0.00 89 1027.0
20171022065758 39 97 0.0 0.0 0.00 0.00 0.00 88 1027.1
20171022064259 39 97 0.0 0.0 0.00 0.00 0.00 87 1027.1
20171022062808 40 97 0.0 0.0 0.00 0.00 0.00 87 1027.1
20171022061252 41 97 0.0 0.0 0.00 0.00 0.00 84 1027.1
20171022055750 41 97 0.0 0.0 0.00 0.00 0.00 84 1027.2
20171022054249 42 97 0.0 0.0 0.00 0.00 0.00 84 1027.2
20171022052751 42 97 0.0 0.0 0.00 0.00 0.00 82 1027.0
20171022051247 43 97 0.0 0.0 0.00 0.00 0.00 83 1027.0
20171022045743 43 97 0.0 0.0 0.00 0.00 0.00 82 1026.9
20171022044248 44 97 0.0 0.0 0.00 0.00 0.00 81 1026.9
20171022042744 44 97 0.0 0.0 0.00 0.00 0.00 81 1026.5
20171022041246 44 97 0.0 0.0 0.00 0.00 0.00 80 1026.4
20171022035735 45 97 0.0 0.0 0.00 0.00 0.00 78 1026.3
20171022034234 46 97 0.0 0.0 0.00 0.00 0.00 76 1026.1
20171022033234 47 97 0.0 0.0 0.00 0.00 0.00 74 1025.8
20171022031951 48 97 0.0 0.0 0.00 0.00 0.00 71 1025.6
20171022025728 50 97 0.0 0.0 0.00 0.00 0.00 67 1025.5
20171022024220 51 97 0.0 0.0 0.00 0.00 0.00 65 1025.5
20171022022719 50 97 0.0 0.0 0.00 0.00 0.00 68 1025.3
20171022021226 51 97 0.0 0.0 0.00 0.00 0.00 66 1025.3
20171022015718 53 97 0.0 0.0 0.00 0.00 0.00 63 1024.9
20171022014213 52 97 0.0 1.0 0.00 0.00 0.00 64 1024.7
20171022012745 53 97 0.0 1.0 0.00 0.00 0.00 63 1024.6
20171022011157 0 0.0 0.0 0.00 0.00 0.00
20171022011013 54 97 0.0 0.0 0.00 0.00 0.00 60 1028.8